Regional Weather Roundup
Issued by NWS Midland/Odessa, TX

Skip options and go directly to product.
Home | Oldest Version | Previous Version | Current Version | All | Text Only | Save Text | Print | Product List | Glossary Off

Skip product version selection by date and time.   

087
ASUS44 KMAF 181610
RWRMAF
MIDLAND AREA WEATHER ROUNDUP
NATIONAL WEATHER SERVICE MIDLAND TX
1000 AM CST THU DEC 18 2014

...IN SOUTHWEST TEXAS AND SOUTHEAST NEW MEXICO...

CITY           SKY/WX    TMP DP  RH WIND       PRES   REMARKS
ALPINE         MOSUNNY   51  29  42 CALM      30.24R
ANDREWS        FAIR      50  32  51 W5        30.14S
ARTESIA        MOSUNNY   41  32  70 N5        30.15R WCI  38
BIG SPRING     MOSUNNY   49  38  66 SE5       30.17R
CARLSBAD       PTSUNNY   56  35  45 W8        30.13R
DRYDEN           N/A     48  47  96 W5        30.15R
FORT STOCKTON  PTSUNNY   54  32  43 SW9       30.15R
GUAD PASS      NOT AVBL
HOBBS          SUNNY     48  32  53 NW7       30.14R
MARFA          PTSUNNY   43  28  56 CALM      30.20R
MIDLAND AIRPK  MOSUNNY   52  35  52 W5        30.14S
MIDLAND INTL   PTSUNNY   50  35  56 N6        30.13S
ODESSA         PTSUNNY   52  34  50 W3        30.14R
PECOS          MOSUNNY   55  35  47 SW12      30.14R
PRESIDIO       FAIR      48  30  49 CALM      30.18R
SEMINOLE       SUNNY     50  33  52 W6        30.14S
SNYDER         SUNNY     42  39  87 W6        30.15R WCI  39
WINK           MOSUNNY   48  31  51 CALM      30.13R
$$
...OTHER STATIONS IN TEXAS...

CITY           SKY/WX    TMP DP  RH WIND       PRES   REMARKS
ABILENE        SUNNY     52  44  74 SW6       30.14R
AMARILLO       CLOUDY    34  32  92 N12       30.12R WCI  25
AUSTIN         FOG       51  51 100 NE6       30.15R VSB 1/2
BROWNSVILLE    PTSUNNY   75  70  84 SE9       30.07R
CORPUS CHRISTI CLOUDY    73  68  84 SE5       30.07R
DALLAS FTW     DRIZZLE   45  44  97 NE3       30.16R FOG
DEL RIO        CLOUDY    56  51  84 W10       30.15R
EL PASO        MOSUNNY   48  36  63 CALM      30.15R
HOUSTON INT    CLOUDY    58  56  93 NE5       30.13R FOG
LUBBOCK        MOSUNNY   44  32  62 N7        30.11R
SAN ANGELO     PTSUNNY   46  44  93 W3        30.16R
SAN ANTONIO    CLOUDY    60  57  89 N7        30.12R
WACO           CLOUDY    48  47  96 N3        30.16R FOG
WICHITA FALLS  NOT AVBL
$$
...OTHER LOCATIONS IN NEW MEXICO...

CITY           SKY/WX    TMP DP  RH WIND       PRES   REMARKS
ALAMAGORDO     SUNNY     43  34  70 SE7       30.16R WCI  39
ALBUQUERQUE    MOSUNNY   34  29  82 S3        30.17R
CANNON AFB     SUNNY     44  28  52 W18G25    30.09R WCI  36
CLOVIS         SUNNY     43  28  56 W14       30.09R WCI  36
HOLLOMAN AFB   SUNNY     43  35  74 SE6       30.14R WCI  39
ROSWELL        SUNNY     45  31  58 NW3       30.13R
RUIDOSO        SUNNY     34  28  80 NE5       30.16R WCI  30
SANTA FE       SUNNY     30  27  88 SW8       30.13R WCI  22
TRUTH OR CONSE MOSUNNY   44  29  55 CALM      30.14S
TUCUMCARI      FOG       32  30  92 CALM      30.10R VSB 1/4
$$

USA.gov is the U.S. government's official web portal to all federal, state and local government web resources and services.